FLOCK 3P-8 (41951 NORAD) Tracking and Keplerian Element Data

This shows tracking and keplerian element data for the satellite.

Feedback or suggestion? Click here.




ElementValue
Catalog41951
NameFLOCK 3P-8
Epoch Orbit5540
Epoch Day45.44857491
Epoch Year2018
RAAN110.9313
Inclination97.4654
Eccentricity0.0009761
Argument of Perigee69.1884
Mean Anonmoly291.0398
Mean Motion15.23916078
Decay Rate1.819E-05
L11 41951U 17008D 18045.44857491 .00001819 00000-0 78186-4 0 9999
L22 41951 97.4654 110.9313 0009761 69.1884 291.0398 15.23916078 55402

Live tracking and technical data element details for FLOCK 3P-8 (NORAD 41951). FLOCK 3P-8 can be tracked NOW for your location showing map with azimuth and elevation plus other details from your city location.

Track the satellite on the map from your city or location and see movement details for azimuth, elevation, latitude, longitude, range, height, and movement on the map or in text.







IsCatalogInMostPopularTable: catalog: 41951, numindb: 125
Update: records affected: 1



GetName: 41951 FLOCK 3P-8

Hit Count: updated at: Mon, 12 Nov 2018 18:45:16 GMT